Kuantan, Malaysia

9:12 AM +08 on October 23, 2019 (GMT +0800)
Kuantan

Weather History for WMKD - August, 2019

Change the Weather History Date:

Friday, August 2, 2019

  Actual Average (WUND) Record (WUND)
Temperature  
Mean Temperature 84 °F -  
Max Temperature 92 °F 90 °F - (-1)
Min Temperature 75 °F 72 °F - (-1)
Cooling Degree Days 18    
Growing Degree Days 34 (Base 50)    
Moisture  
Dew Point 74 °F    
Average Humidity 75    
Maximum Humidity 94    
Minimum Humidity 49    
Precipitation  
Precipitation 0.00 in 0.23 in - ()
Sea Level Pressure  
Sea Level Pressure 29.83 in    
Wind  
Wind Speed 1 mph ()    
Max Wind Speed 7 mph    
Max Gust Speed -    
Visibility 5.3 miles    
Events      
Averages and records for this station are not official NWS values.
T = Trace of Precipitation, MM = Missing Value Source: Averaged Metar Reports

Daily Weather History Graph

Daily Weather History Graph

Search for Another Location

Airport or City:

Astronomy

Aug. 02, 2019 Rise Set
Actual Time 7:05 AM +08 7:21 PM +08
Civil Twilight 6:43 AM +08 7:43 PM +08
Nautical Twilight 6:17 AM +08 8:08 PM +08
Astronomical Twilight 5:52 AM +08 8:34 PM +08
Moon 8:02 AM +08 (8/2) 8:39 PM +08 (8/2)
Length of Visible Light 13h 00m
Length of Day
12h 16m
New Moon, 2% of the Moon is Illuminated
Aug 2
New Moon
Aug 8
First Quarter
Aug 15
Full
Aug 23
Last Quarter
Aug 30
New

Hourly Weather History & Observations

Time (+08) Temp. Heat Index Dew Point Humidity Pressure Visibility Wind Dir Wind Speed Gust Speed Precip Events Conditions
12:00 AM 80.6 °F 87.1 °F 77.0 °F 89% 29.86 in 6.2 mi Calm Calm - N/A   Mostly Cloudy
1:00 AM 78.8 °F - 77.0 °F 94% 29.86 in 6.2 mi Calm Calm - N/A   Mostly Cloudy
2:00 AM 78 °F - 76 °F 91% 29.86 in 6 mi Calm Calm - -   Haze
2:00 AM 78.8 °F - 75.2 °F 89% 29.86 in 6.2 mi Calm Calm - N/A   Mostly Cloudy
3:00 AM 77.0 °F - 75.2 °F 94% 29.83 in 6.2 mi Calm Calm - N/A   Mostly Cloudy
4:00 AM 77.0 °F - 73.4 °F 89% 29.83 in 6.2 mi Calm Calm - N/A   Mostly Cloudy
5:00 AM 77 °F - 73 °F 83% 29.84 in 6 mi Calm Calm - -   Haze
6:00 AM 77.0 °F - 71.6 °F 83% 29.83 in 5.0 mi Calm Calm - N/A   Mostly Cloudy
7:00 AM 75.2 °F - 71.6 °F 89% 29.86 in 4.3 mi Calm Calm - N/A   Mostly Cloudy
8:00 AM 76 °F - 72 °F 86% 29.87 in 5 mi Calm Calm - -   Haze
8:00 AM 75.2 °F - 73.4 °F 94% 29.86 in 5.0 mi Calm Calm - N/A   Mostly Cloudy
9:00 AM 78.8 °F - 73.4 °F 83% 29.89 in 5.6 mi Calm Calm - N/A   Mostly Cloudy
10:00 AM 84.2 °F 89.6 °F 71.6 °F 66% 29.89 in 6.2 mi Variable 2.3 mph - N/A   Mostly Cloudy
11:00 AM 86 °F - 72 °F 55% 29.87 in 6 mi South 4.6 mph - -   Haze
11:00 AM 86.0 °F 91.8 °F 71.6 °F 62% 29.86 in 6.2 mi Variable 4.6 mph - N/A   Mostly Cloudy
12:00 PM 86.0 °F 93.4 °F 73.4 °F 66% 29.86 in 1.2 mi Variable 3.5 mph - N/A   Haze
1:00 PM 89.6 °F 98.2 °F 73.4 °F 59% 29.83 in 2.5 mi Variable 3.5 mph - N/A   Haze
2:00 PM 91 °F - 75 °F 51% 29.82 in 2 mi South 6.9 mph - -   Haze
2:00 PM 91.4 °F 102.5 °F 75.2 °F 59% 29.80 in 2.5 mi Variable 6.9 mph - N/A   Haze
3:00 PM 93.2 °F 105.0 °F 75.2 °F 56% 29.77 in 4.3 mi Variable 6.9 mph - N/A   Mostly Cloudy
4:00 PM 93.2 °F 105.0 °F 75.2 °F 56% 29.74 in 5.6 mi Variable 4.6 mph - N/A   Mostly Cloudy
5:00 PM 92 °F - 75 °F 49% 29.76 in 7 mi SW 4.6 mph - -   Haze
5:00 PM 91.4 °F 102.5 °F 75.2 °F 59% 29.74 in 6.2 mi Variable 4.6 mph - N/A   Mostly Cloudy
6:00 PM 89.6 °F 99.8 °F 75.2 °F 62% 29.77 in 6.2 mi Variable 3.5 mph - N/A   Mostly Cloudy
7:00 PM 86.0 °F 95.1 °F 75.2 °F 70% 29.80 in 5.6 mi Variable 3.5 mph - N/A   Mostly Cloudy
8:00 PM 84 °F - 75 °F 68% 29.81 in 6 mi Calm Calm - -   Haze
8:00 PM 84.2 °F 92.3 °F 75.2 °F 74% 29.80 in 5.6 mi Calm Calm - N/A   Mostly Cloudy
9:00 PM 80.6 °F 86.2 °F 75.2 °F 84% 29.83 in 5.6 mi Calm Calm - N/A   Mostly Cloudy
10:00 PM 78.8 °F - 75.2 °F 89% 29.86 in 5.6 mi Calm Calm - N/A   Mostly Cloudy
11:00 PM 78 °F - 74 °F 84% 29.87 in 6 mi SSW 1.2 mph - -   Haze
11:00 PM 78.8 °F - 73.4 °F 83% 29.86 in 5.6 mi Variable 1.2 mph - N/A   Mostly Cloudy